Preview of NWS' New Version of Forecast
This preview is not operational and should not be used for support decisions.

Regional Weather Roundup (RWR)

Issued by Charleston, WV (RLX)

                            
000
ASUS41 KRLX 212210
RWRRLX
Regional Weather Roundup
National Weather Service Charleston WV
500 PM EST THU FEB 21 2019

Note: "fair" indicates few or no clouds below 12,000 feet with no
significant weather and/or obstructions to visibility.

WVZ003-212300-
Northern Panhandle of West Virginia
  
CITY           SKY/WX    TMP DP  RH WIND       PRES   REMARKS
WHEELING       NOT AVBL                                               
$$

WVZ009-212300-
Northwest West Virginia
  
CITY           SKY/WX    TMP DP  RH WIND       PRES   REMARKS
PARKERSBURG    FAIR      50  22  33 W8        30.22R                  
$$

WVZ006-212300-
Western West Virginia
  
CITY           SKY/WX    TMP DP  RH WIND       PRES   REMARKS
HUNTINGTON     FAIR      51  32  48 N6        30.19R                  
$$

WVZ015-212300-
West Central West Virginia
  
CITY           SKY/WX    TMP DP  RH WIND       PRES   REMARKS
CHARLESTON     PTSUNNY   53  31  42 NW5       30.18R                  
$$

WVZ022-031-212300-
North Central West Virginia
  
CITY           SKY/WX    TMP DP  RH WIND       PRES   REMARKS
MORGANTOWN     FAIR      50  24  36 W7        30.15R                  
CLARKSBURG     FAIR      51  27  39 NW10      30.16R                  
BUCKHANNON     FAIR      52  28  40 NW8       30.15R                  
$$

WVZ025-035-042-045-212300-
Southern West Virginia
  
CITY           SKY/WX    TMP DP  RH WIND       PRES   REMARKS
BECKLEY        FAIR      50  33  52 NW8       30.14R                  
LOGAN          FAIR      52  32  46 N6        30.15F                  
PINEVILLE      FAIR      53  38  58 MISG      30.21R                  
BLUEFIELD      FAIR      45  39  79 W9        30.16R                  
LEWISBURG      FAIR      52  25  34 W10G21    30.13R                  
$$

WVZ047-212300-
Northern Mountains of West Virginia
  
CITY           SKY/WX    TMP DP  RH WIND       PRES   REMARKS
ELKINS         FAIR      50  27  40 W8        30.14R                  
$$

WVZ052-212300-
Eastern Panhandle of West Virginia
  
CITY           SKY/WX    TMP DP  RH WIND       PRES   REMARKS
MARTINSBURG    FAIR      52  23  32 W17G23    30.08R                  
PETERSBURG     FAIR      51  27  39 W14       30.10R                  
$$

Southeast Ohio/Northeast Kentucky
  
CITY           SKY/WX    TMP DP  RH WIND       PRES   REMARKS
ATHENS         FAIR      48  25  40 NW7       30.19S                  
ASHLAND        FAIR      47  35  63 W3        30.21S                  
$$